CAPE
953 800 338 153 84 4 1 0 0 0 0 0 0 0 0 0 0 0 0 0 0 0 0 0 0 0 0 0 0 0 0 0 0 0 0 0 0 1 1 0 2 4 10
1056 496 143 28 10 4 2 0 0 0 0 0 0 0 0 0 0 0 0 0 0 0 0 0 0 0 0 0 0 0 0 0 0 0 0 0 0 4 4 0 2 5 12
488 253 43 14 2 3 1 0 0 0 0 0 0 0 0 0 0 0 0 0 0 0 0 0 0 0 0 0 0 0 0 0 0 0 0 0 0 0 0 0 0 0 0
403 68 41 1 0 1 3 1 0 0 0 0 0 0 0 0 0 0 0 0 0 0 0 0 0 0 0 0 0 0 0 0 0 0 0 0 0 0 0 0 0 0 0
409 26 1 2 2 4 2 0 0 0 0 0 0 0 0 0 0 0 0 0 0 0 0 0 0 0 0 0 0 0 0 0 0 0 0 0 0 0 0 0 0 0 0
200 41 2 2 2 5 2 0 0 0 0 0 0 0 0 0 0 0 0 0 0 0 0 0 0 0 0 0 0 0 0 0 0 0 0 0 0 0 0 0 0 0 0
131 20 2 0 2 5 4 0 0 0 0 0 0 0 0 0 0 0 0 0 0 0 0 0 0 0 0 0 0 0 0 0 0 0 0 0 0 0 0 0 0 4 2
79 2 3 3 3 4 4 0 0 0 0 0 0 0 0 0 0 0 0 0 0 0 0 0 0 0 0 0 0 0 0 0 0 0 0 0 0 0 0 0 0 0 0
10 1 2 2 5 4 0 0 0 0 0 0 0 0 0 0 0 0 0 0 0 0 0 0 0 0 0 0 0 0 0 0 0 0 0 0 0 0 0 0 0 0 0
3 3 2 1 3 0 0 0 0 0 0 0 0 0 0 0 0 0 0 0 0 0 0 0 0 0 0 0 0 0 0 0 0 0 0 0 0 0 0 0 0 0 0
2 1 1 3 5 2 1 0 0 0 0 0 0 0 0 0 0 0 0 0 0 0 0 0 0 0 0 0 0 0 0 0 0 0 0 0 0 0 0 0 0 0 0
2 2 3 3 4 4 0 0 0 0 0 0 0 0 0 0 0 0 0 0 0 0 0 0 0 0 0 0 0 0 0 0 0 0 0 0 0 0 0 0 0 0 0
2 3 3 3 3 3 0 0 0 0 0 0 0 0 0 0 0 0 0 0 0 0 0 0 0 0 0 0 0 0 0 0 0 0 0 0 0 0 0 0 0 0 0
4 4 3 5 3 1 0 0 0 0 0 0 0 0 0 0 0 0 0 0 0 0 0 0 0 0 0 0 0 0 0 0 0 0 0 0 0 0 0 0 0 0 0
3 3 3 4 1 0 0 0 0 0 0 0 0 0 0 0 0 0 0 0 0 0 0 0 0 0 0 0 0 0 0 0 0 0 0 0 0 0 0 0 0 0 0
3 3 4 3 2 0 0 0 0 0 0 0 0 0 0 0 0 0 0 0 0 0 0 0 0 0 0 0 0 0 0 0 0 0 0 0 0 0 0 0 0 0 0
3 2 4 2 0 0 0 0 0 0 0 0 0 0 0 0 0 0 0 0 0 0 0 0 0 0 0 0 0 0 0 0 0 0 0 0 0 0 0 0 0 0 0
2 2 4 5 2 0 0 0 0 0 0 0 0 0 0 0 0 0 0 0 0 0 0 0 0 0 0 0 0 0 0 0 0 0 0 0 0 0 0 0 0 0 0
3 3 3 3 1 0 0 0 0 0 0 0 0 0 0 0 0 0 0 0 0 0 0 0 0 0 0 0 0 0 0 0 0 0 0 0 0 0 0 0 0 0 0
1 1 2 1 1 0 0 0 0 0 0 0 0 0 0 0 0 0 0 0 0 0 0 0 0 0 0 0 0 0 0 0 0 0 0 0 0 0 0 0 0 0 0
5 3 0 1 0 0 0 0 0 0 0 0 0 0 0 0 0 0 0 0 0 0 0 0 0 0 0 0 0 0 0 0 0 0 0 0 0 0 0 0 0 0 0
3 1 0 0 0 0 0 0 0 0 0 0 0 0 0 0 0 0 0 0 0 0 0 0 0 0 0 0 0 0 0 0 0 0 0 0 0 0 0 0 0 0 0
3 1 0 0 0 0 0 0 0 0 0 0 0 0 0 0 0 0 0 0 0 0 0 0 0 0 0 0 0 0 0 0 0 0 0 0 0 0 0 0 0 0 0
2 0 0 0 0 0 0 0 0 0 0 0 0 0 0 0 0 0 0 0 0 0 0 0 0 0 0 0 0 0 0 0 0 0 0 0 0 0 0 0 0 0 0
1 0 0 0 0 0 0 0 0 0 0 0 0 0 0 0 0 0 0 0 0 0 0 0 0 0 0 0 0 0 0 0 0 0 0 0 0 0 0 0 0 0 0
3 1 0 0 0 0 0 0 0 0 0 0 0 0 0 0 0 0 0 0 0 0 0 0 0 0 0 0 0 0 0 0 0 0 0 0 0 0 0 0 0 0 0
CIN
-117 -85 -122 -153 -180 0 0 0 0 0 0 0 0 0 0 0 0 0 0 0 0 0 0 0 0 0 0 0 0 0 0 0 0 0 0 0 0 -1 -1 -0 -1 -1 -1
-8 -81 -147 -283 -319 0 0 0 0 0 0 0 0 0 0 0 0 0 0 0 0 0 0 0 0 0 0 0 0 0 0 0 0 0 0 0 0 -1 -1 -0 -2 -0 -1
-28 -95 -306 -344 0 0 0 0 0 0 0 0 0 0 0 0 0 0 0 0 0 0 0 0 0 0 0 0 0 0 0 0 0 0 0 0 0 0 0 0 0 0 -1
-58 -231 -267 0 0 0 0 0 0 0 0 0 0 0 0 0 0 0 0 0 0 0 0 0 0 0 0 0 0 0 0 0 0 0 0 0 0 -0 0 0 0 0 -0
-76 -285 0 0 0 0 0 0 0 0 0 0 0 0 0 0 0 0 0 0 0 0 0 0 0 0 0 0 0 0 0 0 0 0 0 0 0 0 0 0 0 0 0
-174 -249 0 0 0 0 0 0 0 0 0 0 0 0 0 0 0 0 0 0 0 0 0 0 0 0 0 0 0 0 0 0 0 0 0 0 0 0 0 0 0 0 0
-230 -291 0 0 0 0 0 0 0 0 0 0 0 0 0 0 0 0 0 0 0 0 0 0 0 0 0 0 0 0 0 0 0 0 0 0 0 0 0 0 0 -1 -1
-266 0 0 0 0 0 0 0 0 0 0 -0 0 0 0 0 0 0 0 0 0 0 0 0 0 0 0 0 0 0 0 0 0 0 0 0 0 0 0 0 -0 0 0
-397 0 0 0 0 0 0 0 0 0 0 0 0 0 0 0 0 0 0 0 0 0 0 0 0 0 0 0 0 0 0 0 0 0 0 0 0 0 0 0 0 0 0
0 0 0 0 0 0 0 0 0 0 0 0 0 0 0 0 0 0 0 0 0 0 0 0 0 0 0 0 0 0 0 0 0 0 0 0 0 0 0 0 0 0 0
0 0 0 0 0 0 0 0 0 0 0 0 0 0 0 0 0 0 0 0 0 0 0 0 0 0 0 0 0 0 0 0 0 0 0 0 0 0 0 0 0 0 0
0 0 0 0 0 0 0 0 0 0 0 0 0 0 0 0 0 0 0 0 0 0 0 0 0 0 0 0 0 0 0 0 0 0 0 0 0 0 0 0 0 0 0
0 0 0 0 0 0 0 0 0 0 0 0 0 0 0 0 0 0 0 0 0 0 0 0 0 0 0 0 0 0 0 0 0 0 0 0 0 0 0 0 0 0 0
0 0 0 0 0 0 0 0 0 0 0 0 0 0 0 0 0 0 0 0 0 0 0 0 0 0 0 0 0 0 0 0 0 0 0 0 0 0 0 0 0 0 0
0 0 0 0 0 0 0 0 0 0 0 0 0 0 0 0 0 0 0 0 0 0 0 0 0 0 0 0 0 0 0 0 0 0 0 0 0 0 0 0 0 0 0
0 0 0 0 0 0 0 0 0 0 0 0 0 0 0 0 0 0 0 0 0 0 0 0 0 0 0 0 0 0 0 0 0 0 0 0 0 0 0 0 0 0 0
0 0 0 0 0 0 0 0 0 0 0 0 0 0 0 0 0 0 0 0 0 0 0 0 0 0 0 0 0 0 0 0 0 0 0 0 0 0 0 0 0 0 0
0 0 0 0 0 0 0 0 0 0 0 0 0 0 0 0 0 0 0 0 0 0 0 0 0 0 0 0 0 0 0 0 0 0 0 0 0 0 0 0 0 0 0
0 0 0 0 0 0 0 0 0 0 0 0 0 0 0 0 0 0 0 0 0 0 0 0 0 0 0 0 0 0 0 0 0 0 0 0 0 0 0 0 0 0 0
0 0 0 0 0 0 0 0 0 0 0 0 0 0 0 0 0 0 0 0 0 0 0 0 0 0 0 0 0 0 0 0 0 0 0 0 0 0 0 0 0 0 0
0 0 0 0 0 0 0 0 0 0 0 0 0 0 0 0 0 0 0 0 0 0 0 0 0 0 0 0 0 0 0 0 0 0 0 0 0 0 0 0 0 0 0
0 0 0 0 0 0 0 0 0 0 0 0 0 0 0 0 0 0 0 0 0 0 0 0 0 0 0 0 0 0 0 0 0 0 0 0 0 0 0 0 0 0 0
0 0 0 0 0 0 0 0 0 0 0 0 0 0 0 0 0 0 0 0 0 0 0 0 0 0 0 0 0 0 0 0 0 0 0 0 0 0 0 0 0 0 0
0 0 0 0 0 0 0 0 0 0 0 0 0 0 0 0 0 0 0 0 0 0 0 0 0 0 0 0 0 0 0 0 0 0 0 0 0 0 0 0 0 0 0
0 0 0 0 0 0 0 0 0 0 0 0 0 0 0 0 0 0 0 0 0 0 0 0 0 0 0 0 0 0 0 0 0 0 0 0 0 0 0 0 0 0 0
0 0 0 0 0 0 0 0 0 0 0 0 0 0 0 0 0 0 0 0 0 0 0 0 0 0 0 0 0 0 0 0 0 0 0 0 0 0 0 0 0 0 0
Wind_Speed
27 25 31 33 30 28 20 16 19 16 12 8 4 2 1 3 4 4 6 7 8 10 13 15 18 19 20 20 20 21 22 23 24 26 24 25 26 26 29 31 31 30 31
36 25 21 25 25 23 20 17 17 19 14 12 5 2 1 2 3 4 5 6 8 10 13 16 18 19 20 20 20 20 22 22 24 26 25 27 25 25 28 31 33 31 30
29 27 23 23 23 23 20 19 23 20 15 12 6 5 1 2 2 3 5 6 8 11 14 16 18 18 20 20 20 20 22 22 24 25 26 26 24 27 29 32 32 34 32
30 26 24 24 24 25 24 20 26 21 16 10 9 6 2 2 1 3 4 5 8 12 14 16 18 19 19 20 19 20 22 23 24 26 27 27 26 27 29 32 34 35 36
33 29 27 24 20 20 25 29 25 20 15 12 9 6 2 1 1 3 3 5 8 11 14 16 18 19 20 20 19 21 22 23 25 26 27 26 27 29 31 31 34 35 36
31 31 25 22 18 20 23 29 25 18 16 14 10 6 3 3 3 4 3 5 8 11 14 16 18 19 20 21 20 22 23 23 25 26 26 25 28 28 28 29 33 37 39
34 28 25 22 21 24 28 26 24 21 16 14 10 6 4 3 5 5 3 6 8 11 14 16 18 19 19 19 21 23 24 24 24 24 25 25 26 26 25 29 33 33 34
33 28 26 25 22 25 28 24 25 21 17 14 10 6 5 4 6 4 4 6 8 11 14 16 18 19 20 19 20 22 23 24 24 23 24 24 25 25 24 26 28 29 30
32 28 28 27 27 25 26 24 22 19 17 14 10 7 6 5 6 5 3 5 8 11 14 16 18 19 20 20 20 22 23 24 24 24 23 24 26 27 27 29 31 32 34
32 29 26 26 28 27 27 23 22 19 15 11 10 9 7 6 6 4 3 5 7 10 13 15 18 19 20 21 21 22 22 23 22 22 23 24 26 27 29 30 30 32 34
30 26 26 28 30 27 26 21 21 19 11 8 10 11 8 6 6 5 2 4 6 9 11 14 17 19 20 21 22 23 22 21 22 23 24 26 27 28 28 28 29 31 33
31 27 25 24 25 25 25 24 19 16 15 13 10 13 10 7 5 4 2 4 6 9 11 14 16 18 20 21 22 22 21 21 22 23 25 28 28 29 27 28 28 29 30
31 28 27 27 26 24 24 21 19 17 16 13 14 13 11 9 6 3 0 3 6 9 11 13 15 17 19 21 22 22 21 22 22 23 26 27 27 28 27 27 28 27 29
30 27 26 25 23 23 27 24 20 18 16 14 15 13 11 9 7 4 1 2 6 8 11 12 14 16 19 19 20 21 22 22 22 24 25 26 27 28 29 28 29 30 30
29 26 23 22 23 26 24 23 22 17 17 14 17 14 11 9 8 5 3 2 4 7 9 11 13 15 17 18 19 20 21 21 22 23 24 26 28 28 29 29 30 30 31
30 26 23 22 22 23 25 22 17 16 14 15 14 11 10 6 7 5 3 4 6 8 8 10 13 14 16 17 17 18 19 20 22 22 24 26 28 28 28 28 29 30 31
29 28 25 22 22 22 25 20 20 15 11 13 15 10 8 7 6 5 5 6 7 6 8 10 11 13 14 15 16 17 18 19 21 22 23 26 27 26 27 28 29 30 30
25 26 24 23 24 25 23 20 19 18 16 16 14 10 7 7 6 7 8 5 4 6 8 9 10 12 13 14 15 15 16 17 19 20 22 24 26 26 27 27 28 29 29
21 22 24 21 23 20 17 18 19 17 17 16 14 11 8 6 7 8 6 2 3 5 7 9 11 11 12 13 13 14 15 17 19 20 22 23 25 25 26 27 27 30 29
20 22 20 23 21 19 18 18 17 18 19 17 14 11 8 7 5 4 1 3 4 5 7 9 10 10 11 11 12 13 14 16 18 19 21 22 23 24 25 26 27 28 28
22 23 22 20 21 19 19 20 21 23 22 17 12 9 9 6 5 3 1 3 4 6 7 8 9 10 10 10 11 12 14 15 17 18 20 21 22 23 23 24 25 27 28
22 21 19 19 20 18 20 24 25 23 18 15 12 9 7 4 4 2 1 2 5 6 8 8 9 9 9 10 10 12 13 14 16 17 19 20 21 22 22 23 24 25 26
17 18 19 19 19 22 24 22 20 19 17 14 11 9 7 4 3 2 0 3 5 6 8 8 8 8 9 9 10 11 12 14 16 17 18 19 20 20 21 22 22 24 25
15 18 17 18 21 20 20 19 19 16 13 11 10 9 7 5 3 2 1 3 4 6 7 7 7 8 8 8 9 11 12 13 15 16 18 18 19 20 20 21 22 23 23
11 14 17 18 18 20 18 17 15 13 12 11 9 8 6 5 4 2 0 2 3 5 6 6 7 7 7 8 9 11 12 13 14 16 17 17 18 19 20 20 21 21 22
12 15 16 19 18 16 18 16 14 12 11 10 8 8 7 6 4 3 1 2 3 5 5 6 6 6 7 8 9 10 11 13 14 15 16 16 16 17 18 19 20 20 21
Wind_Direction
218 217 223 225 227 226 220 222 231 229 230 232 244 264 343 11 25 22 40 36 28 23 20 21 21 25 25 30 32 32 32 30 26 25 28 26 25 24 20 17 18 19 19
221 216 208 222 224 223 221 223 224 228 228 235 237 240 273 51 45 51 42 28 21 20 13 14 17 24 23 28 32 33 33 35 28 25 28 25 28 26 22 20 20 22 21
222 221 220 222 221 222 226 222 225 224 225 230 233 236 234 93 69 37 40 31 10 13 14 12 16 23 22 29 31 34 34 35 31 29 29 31 32 29 24 22 22 22 23
219 220 224 228 226 228 227 219 223 223 220 230 231 233 214 111 64 44 43 20 14 10 11 16 20 21 25 30 34 38 34 33 31 30 30 31 33 31 27 24 23 23 21
220 223 229 228 224 225 218 216 219 221 225 223 223 226 188 150 105 84 51 23 18 14 10 17 21 21 26 31 37 36 34 31 31 31 30 34 32 30 27 26 25 23 26
219 226 225 220 210 211 204 211 215 219 222 222 220 211 205 246 133 103 72 27 14 16 15 20 24 23 27 32 38 35 36 34 30 33 35 36 33 32 31 29 26 25 25
221 221 222 212 207 208 205 211 215 218 217 218 216 212 219 217 131 115 63 18 24 21 20 23 25 22 27 39 40 38 36 35 38 40 40 39 36 34 33 31 29 30 32
220 221 218 211 198 208 207 209 212 215 214 218 214 213 207 194 137 119 67 35 24 22 19 22 23 21 22 35 39 35 34 36 39 45 45 45 41 38 38 35 35 35 40
216 218 215 213 209 200 201 204 208 207 214 218 216 202 198 178 145 125 60 31 28 26 19 23 23 23 25 32 37 35 32 33 45 48 50 46 43 43 43 41 38 37 36
217 216 215 217 210 198 204 207 202 208 212 211 214 208 189 178 155 133 66 30 30 25 28 22 18 22 25 30 34 31 31 30 38 44 43 43 44 45 45 44 42 40 38
220 217 215 217 212 208 199 194 201 207 196 182 205 218 205 191 169 142 78 18 22 25 33 28 20 26 28 33 30 29 34 36 39 42 42 40 41 43 46 45 45 44 40
217 216 216 213 208 202 199 193 196 200 201 203 192 220 223 217 189 163 104 17 28 25 26 32 28 28 33 32 31 30 36 39 39 41 39 36 39 41 46 46 48 48 48
212 215 217 213 211 202 190 191 191 192 197 194 208 217 221 228 223 195 110 62 23 27 36 38 40 37 39 34 29 27 33 34 37 38 37 36 41 43 46 47 48 50 51
212 210 210 209 202 203 204 203 199 195 194 205 215 215 215 219 213 219 170 11 41 41 53 33 34 41 38 36 28 28 26 30 36 36 36 36 40 42 44 46 46 46 46
211 207 207 206 206 204 212 213 214 211 209 206 219 217 201 205 203 176 144 82 59 60 52 40 30 32 35 33 29 25 26 30 34 35 36 34 37 40 43 45 45 45 43
209 209 205 205 200 204 205 213 217 220 213 219 214 201 223 205 168 153 135 98 89 81 34 26 23 32 33 32 29 26 26 29 29 33 35 32 34 38 42 44 45 43 43
209 212 205 201 202 200 208 202 206 217 205 203 210 206 207 170 163 152 127 107 92 49 19 22 27 33 37 33 28 25 25 29 28 29 33 32 33 39 41 42 43 43 44
209 207 208 203 200 197 203 205 204 200 190 204 217 215 184 163 159 138 127 99 50 1 10 30 38 36 39 31 25 28 29 30 31 33 32 34 34 37 40 42 42 43 44
209 206 199 189 187 180 184 192 195 192 195 201 207 216 206 172 143 136 126 15 2 6 27 35 36 39 42 37 29 31 32 28 28 31 31 31 32 36 38 40 42 40 43
200 182 179 178 180 182 182 182 189 193 200 205 206 202 197 171 183 171 293 346 1 21 30 40 41 42 43 39 33 36 34 28 28 31 30 32 32 33 36 39 39 39 42
174 176 177 182 187 184 186 192 197 201 204 207 206 193 174 182 168 174 291 337 10 34 37 35 37 46 43 35 33 34 28 26 29 32 30 31 33 33 35 38 40 39 41
175 181 185 185 186 186 194 200 203 203 203 207 209 198 178 183 154 182 343 10 32 30 28 34 39 40 40 40 38 34 30 30 31 32 29 30 33 33 34 36 39 37 41
191 189 194 190 190 195 199 203 203 204 206 209 202 184 186 171 178 231 9 38 23 22 28 35 40 40 35 31 35 34 33 32 30 31 31 35 36 36 35 35 37 38 39
187 194 182 189 198 200 203 206 209 207 204 195 185 185 187 176 177 174 32 27 17 21 26 30 28 37 38 37 31 29 32 33 32 32 32 35 36 36 34 34 34 37 40
182 194 198 196 197 204 202 205 205 201 196 180 187 183 173 175 169 173 97 353 5 13 12 18 23 28 19 32 31 27 30 32 31 31 32 34 35 34 34 33 33 38 39
205 211 208 207 206 204 209 206 203 203 203 199 184 180 179 179 180 219 254 316 341 360 11 5 22 25 30 27 26 24 26 26 28 28 31 35 37 35 33 33 33 33 34